SCP
0 0 0 0 0 0 0 0 0 1 1 2 2 2 4 7 8 8 8 8 8 9 9 8 7 7 11 16 19 18 15 11 9 7 6 6 5 5 4 3 2 2 2 2
0 0 0 0 0 0 0 0 1 1 2 3 3 3 5 8 9 9 8 8 9 10 10 10 9 9 9 12 16 17 15 12 10 8 8 7 6 6 4 3 2 2 2 2
0 0 0 0 1 1 1 1 1 1 2 3 3 3 5 8 9 9 8 8 9 12 13 11 10 9 8 8 11 14 15 13 12 11 10 10 9 7 5 4 2 2 2 2
0 0 0 1 1 1 1 1 1 2 2 2 3 3 5 7 9 8 8 8 10 13 14 11 8 7 7 6 7 10 13 14 14 14 14 13 11 9 7 5 3 2 1 1
0 0 0 1 1 1 1 1 1 1 2 2 3 3 4 6 9 9 9 9 10 12 13 9 6 6 6 6 6 8 10 12 14 15 16 15 14 11 8 6 4 3 2 2
0 0 0 1 1 1 1 1 1 1 2 2 3 3 4 6 9 10 10 10 10 9 9 7 6 6 7 6 6 6 7 8 10 12 14 15 14 12 10 9 6 3 2 2
0 0 1 2 2 2 1 1 1 2 2 2 3 3 5 8 10 10 10 9 8 7 6 5 5 6 7 6 5 5 6 6 6 8 10 12 12 13 12 9 6 4 2 2
0 0 1 2 4 4 3 2 2 2 3 3 5 6 8 9 10 11 10 9 7 6 5 4 4 5 6 5 5 5 5 5 5 6 7 8 9 10 9 7 5 3 2 2
1 2 3 4 6 6 6 6 5 4 4 5 7 10 11 11 12 12 10 8 7 6 4 4 3 3 4 4 4 5 4 4 5 6 7 6 6 6 5 4 4 3 3 2
3 4 6 7 7 7 8 9 8 7 6 6 8 10 11 12 13 12 10 8 7 6 4 3 3 3 3 4 4 4 5 6 6 5 7 6 5 4 4 4 4 3 3 3
3 5 6 8 8 8 8 9 9 8 6 6 7 9 10 11 11 10 9 8 7 4 3 2 2 2 2 3 5 4 6 8 6 5 7 7 6 5 5 4 4 4 3 3
2 3 4 6 8 8 8 8 7 7 5 5 7 7 8 9 10 10 9 7 5 3 2 1 1 1 2 3 5 5 6 6 5 5 7 8 7 6 5 5 4 3 3 3
1 2 3 4 6 7 8 7 6 5 5 5 5 5 6 8 9 9 7 6 4 3 2 2 2 2 2 3 5 6 6 5 4 5 7 9 8 6 5 4 3 2 2 2
1 1 2 3 4 6 6 6 5 4 4 4 3 4 7 10 10 8 6 4 4 3 3 3 3 3 3 4 6 7 6 5 4 5 7 9 9 7 5 5 4 3 2 1
1 1 1 1 2 3 4 4 4 3 3 3 2 3 7 10 9 7 5 3 3 3 3 4 4 4 4 6 6 5 4 4 4 4 6 9 8 6 5 6 6 6 4 3
0 0 0 0 1 1 2 2 2 2 2 2 1 2 4 5 4 4 3 2 2 2 3 4 5 5 6 7 6 4 3 3 3 4 6 7 7 6 6 7 8 7 6 4
2 2 2 1 1 1 1 1 2 2 2 1 1 1 1 1 1 1 1 1 1 2 2 3 4 6 8 8 7 5 3 3 3 4 6 6 7 7 7 8 7 7 5 4
4 3 3 3 2 1 1 1 2 2 1 1 0 1 1 0 0 1 1 1 1 2 2 2 2 5 8 9 8 6 5 3 3 4 5 5 6 7 8 7 5 5 4 3
3 3 3 3 3 2 2 1 1 1 1 1 0 0 0 0 1 1 2 2 2 1 1 1 1 3 6 8 8 7 5 4 3 3 3 4 5 6 8 7 5 3 3 2
2 2 1 1 2 2 1 1 1 1 1 1 1 0 0 0 1 2 2 2 1 1 1 0 0 1 3 5 6 5 4 3 3 2 2 3 4 5 6 6 5 3 3 2
1 1 1 1 1 1 1 0 0 0 0 1 1 1 0 0 1 1 1 1 1 1 0 0 0 1 2 3 4 4 3 3 2 2 2 2 2 3 4 4 4 4 4 3
1 1 1 1 1 1 1 1 1 0 0 1 1 1 0 0 1 1 1 1 0 0 0 0 1 2 2 2 2 3 2 2 2 2 1 1 1 2 2 3 3 3 3 3
1 1 1 1 1 1 1 1 1 1 1 1 1 1 0 0 0 0 0 0 0 0 0 0 1 2 2 1 1 1 2 2 2 2 1 1 1 1 2 2 2 2 2 2
0 0 0 1 1 1 1 1 1 1 1 1 1 1 1 0 0 0 0 0 0 0 0 0 0 1 1 1 0 1 1 1 2 2 1 1 1 1 1 1 1 1 1 1
0 0 0 0 1 1 1 1 1 1 1 2 1 1 1 0 0 0 0 0 0 0 0 0 0 0 0 0 0 0 0 1 1 1 1 1 1 1 1 0 0 0 0 1
0 0 0 0 0 0 1 1 1 1 1 1 1 1 1 0 0 0 0 0 0 0 0 0 0 0 0 0 0 0 0 0 0 1 1 1 1 1 1 1 1 1 1 1
0 0 0 0 0 0 0 1 1 1 1 1 1 0 0 0 0 0 0 0 0 0 0 0 0 0 0 0 0 0 0 0 0 0 0 1 2 2 1 1 1 1 1 1
Wind_Speed
4 3 1 2 4 1 2 6 7 7 7 8 7 7 6 7 6 7 7 7 8 7 6 6 5 4 5 6 6 6 6 5 5 5 4 3 3 3 2 2 3 2 2 1
2 2 3 3 4 2 1 3 4 5 4 5 4 4 5 7 8 8 7 7 7 7 7 7 6 5 4 4 5 6 5 5 4 4 3 3 3 3 2 2 2 2 2 2
2 2 4 4 3 1 0 1 4 5 5 5 5 6 7 7 7 7 7 8 8 6 5 5 5 5 5 4 4 5 5 4 4 4 4 4 3 3 3 3 3 2 2 2
1 2 2 6 3 3 3 1 1 4 4 6 6 5 4 5 7 7 6 7 7 6 5 3 4 4 4 4 4 4 4 4 4 4 4 3 3 3 3 3 3 3 3 3
3 2 3 4 4 1 3 2 1 6 6 5 5 7 3 1 6 7 7 7 6 6 6 5 5 4 4 3 3 2 3 4 4 4 4 4 4 4 3 3 3 3 3 4
3 3 3 4 6 1 5 1 2 5 8 6 6 4 3 3 5 6 5 5 5 5 5 5 4 5 5 3 3 3 3 3 4 4 4 5 5 4 3 3 4 3 3 3
3 2 3 5 6 4 3 5 2 2 5 5 3 4 4 3 4 5 6 5 5 6 5 4 4 5 4 2 3 4 3 2 3 3 4 4 4 4 4 3 3 3 3 3
2 2 4 6 4 2 4 1 2 3 4 6 6 5 3 4 4 5 5 4 4 4 4 3 4 5 4 3 3 2 2 2 2 3 3 3 3 3 3 3 4 3 3 3
5 5 5 2 2 1 3 4 2 3 4 6 6 5 4 4 4 4 3 3 3 4 4 3 3 5 5 4 3 2 2 2 2 2 2 2 3 3 3 3 3 4 4 4
2 1 1 2 3 3 3 4 3 4 5 5 5 4 3 4 4 4 2 2 2 3 3 3 3 3 4 4 3 3 3 2 2 1 2 2 2 3 3 3 3 4 4 4
1 2 2 3 2 2 3 4 4 4 4 4 5 4 3 3 3 3 2 2 2 2 3 3 3 2 3 3 3 3 2 2 2 1 2 1 1 2 3 4 5 6 5 5
4 5 3 2 2 2 3 2 3 4 3 3 3 3 3 3 2 2 2 2 1 2 2 2 2 2 2 2 3 3 2 2 2 2 2 2 2 2 3 3 5 7 7 6
4 3 3 1 1 2 2 1 2 3 3 3 2 3 3 2 1 1 2 3 3 3 3 2 2 2 2 2 2 3 3 3 2 2 2 2 2 2 2 3 3 4 6 7
1 2 2 1 1 1 2 2 2 2 2 2 2 3 3 3 2 1 2 3 3 2 2 2 2 2 2 1 1 2 2 3 3 3 3 3 3 3 3 3 2 3 3 5
2 2 2 1 1 1 2 3 4 2 2 2 2 3 3 3 2 1 1 1 2 1 1 1 1 2 2 2 2 2 2 2 2 2 2 2 2 2 2 3 3 2 2 2
1 2 2 3 2 2 2 3 3 1 1 2 2 2 2 3 2 1 1 1 2 1 2 2 3 3 2 1 2 2 2 4 3 2 2 2 2 2 2 2 2 2 3 3
1 1 1 2 2 2 2 2 2 2 1 1 1 1 1 2 2 0 1 1 2 2 3 3 4 3 1 2 2 2 2 3 3 2 2 2 2 3 3 3 3 3 3 3
1 1 1 2 3 3 3 2 2 2 2 1 1 1 1 2 2 2 2 2 1 2 2 3 3 1 1 2 2 2 2 2 2 2 2 2 2 2 2 3 3 3 2 3
3 3 3 3 3 3 2 2 1 1 1 1 1 1 2 2 2 2 1 0 1 3 4 3 2 1 1 2 2 2 2 2 2 2 3 3 2 2 2 3 3 3 2 2
5 4 4 4 3 3 2 1 0 0 0 1 0 0 1 2 2 1 1 1 3 3 3 2 1 2 2 3 2 2 2 2 2 2 2 2 2 2 2 2 3 3 3 3
3 3 3 3 3 2 1 1 1 1 1 1 1 2 2 2 1 1 1 2 4 3 2 2 2 2 2 2 2 1 2 2 2 2 2 2 2 2 2 2 2 2 2 2
2 2 2 2 2 2 2 1 1 1 1 1 1 1 1 1 1 1 2 3 4 3 1 1 2 2 2 2 2 2 2 2 2 2 2 2 2 2 2 2 2 2 2 2
0 0 1 1 1 1 2 2 2 1 1 1 1 2 2 2 2 1 2 3 2 2 2 2 3 3 3 2 1 2 2 2 2 1 1 1 2 1 2 2 2 2 2 1
2 1 2 2 2 2 3 3 3 2 2 1 2 2 2 1 1 1 2 2 2 3 2 2 3 3 3 2 1 1 1 1 1 1 1 1 1 1 1 1 1 1 1 1
2 2 2 2 2 2 2 3 3 3 2 1 1 2 1 1 1 2 1 1 2 1 1 2 2 3 2 1 1 1 2 2 1 1 1 1 1 1 1 1 1 1 1 1
2 2 2 2 2 2 1 1 2 2 1 1 2 2 1 1 1 1 1 1 1 0 1 1 1 1 1 1 1 1 1 1 1 1 0 0 1 1 1 1 0 0 1 1
2 2 2 2 2 2 1 1 1 2 1 1 1 2 1 1 1 1 1 0 0 0 0 1 1 0 0 1 1 0 0 0 0 1 0 0 0 0 0 0 0 0 0 0
Wind_Direction
208 218 167 271 281 272 160 178 174 204 202 216 196 179 166 152 144 135 134 137 146 148 143 139 136 138 147 151 154 157 157 168 180 181 178 175 173 180 180 178 173 162 161 175
342 350 39 341 313 305 212 176 175 169 215 216 165 135 133 139 136 137 142 147 150 144 141 146 153 157 148 148 156 151 158 176 183 177 170 174 179 178 178 191 182 169 173 182
279 312 36 324 289 216 99 173 163 184 207 155 127 147 153 149 138 141 144 148 151 150 150 160 167 157 151 156 150 144 158 175 180 180 178 183 181 176 190 198 185 191 196 185
156 59 216 241 245 141 109 45 115 137 150 147 152 152 139 143 141 145 143 137 140 140 139 148 146 145 144 138 141 154 167 180 183 175 176 182 182 194 202 195 192 201 204 199
129 174 255 300 312 309 117 342 54 124 128 130 114 85 45 134 147 153 148 142 143 146 141 135 130 133 136 133 141 148 171 178 180 177 178 190 201 206 204 191 202 209 204 198
131 151 221 261 291 286 95 330 294 141 141 141 112 113 232 195 140 132 130 133 138 133 120 125 134 133 132 152 158 183 200 194 187 179 184 198 205 206 201 193 201 206 213 211
144 180 254 281 315 35 106 231 280 132 134 133 139 178 187 167 139 130 132 134 130 127 129 145 142 130 132 161 196 206 203 186 187 190 197 207 208 206 199 194 193 203 212 223
119 124 260 304 13 91 207 207 78 78 96 108 109 107 118 129 131 125 126 129 135 137 143 152 149 141 150 191 214 198 178 183 207 216 216 209 200 213 200 192 194 210 216 233
169 199 245 301 117 147 122 102 87 88 94 109 111 119 125 124 126 128 137 142 146 149 152 159 167 161 167 198 191 178 182 208 231 239 229 205 195 204 197 195 207 215 213 224
55 0 358 47 55 53 88 105 102 99 98 101 108 117 127 127 129 133 137 136 124 131 165 191 192 186 190 198 186 171 188 213 226 223 247 245 222 200 196 206 213 221 224 225
99 263 354 357 13 97 83 89 89 89 97 107 115 132 139 133 138 140 135 146 154 170 196 211 207 206 206 188 163 165 192 210 220 224 226 242 242 230 213 215 207 207 217 212
214 230 181 250 300 80 90 97 102 105 98 96 124 135 120 119 142 142 136 145 156 173 182 197 193 206 228 191 164 166 192 219 227 229 228 226 230 278 279 249 246 231 224 216
202 206 165 172 26 46 71 93 111 114 128 135 125 134 129 133 142 141 161 178 186 191 190 185 189 220 247 220 171 171 198 218 224 220 220 226 228 231 264 294 291 260 239 230
182 109 81 38 6 47 78 83 105 99 104 126 121 115 119 125 127 147 221 214 193 180 186 182 179 225 243 205 180 209 224 235 229 220 221 222 229 234 226 226 257 284 282 251
343 121 165 160 55 45 64 83 84 70 53 55 92 104 106 110 126 183 224 198 146 150 207 211 217 253 239 186 206 230 235 244 234 226 226 225 225 230 235 230 231 247 278 303
353 53 82 83 68 58 74 86 97 95 78 70 82 105 132 143 149 163 201 155 142 198 230 228 242 253 239 213 243 254 246 256 250 219 217 223 224 223 231 234 237 237 237 236
76 16 54 87 90 73 72 88 122 137 122 131 160 157 122 120 107 45 288 247 209 216 226 228 244 253 231 211 219 249 255 260 264 247 233 231 225 216 218 221 224 229 234 223
129 132 133 131 123 100 75 85 103 115 137 175 133 107 145 159 171 207 245 255 278 298 272 247 246 248 254 253 245 249 245 241 242 243 244 243 238 227 222 222 226 230 241 224
66 62 63 68 79 93 94 101 109 117 120 142 137 175 216 213 205 217 219 200 242 274 277 276 255 204 243 264 274 257 246 245 251 254 245 244 250 243 229 226 224 222 218 208
56 51 57 54 51 57 44 19 15 43 90 107 109 209 245 250 229 226 216 232 241 243 253 265 250 242 250 260 271 252 247 241 238 248 251 245 246 247 239 229 221 218 215 213
43 46 47 50 34 22 1 331 310 290 271 239 243 255 249 251 235 201 187 263 277 266 250 245 242 258 256 268 278 262 254 252 246 239 236 243 243 239 242 240 227 217 215 216
32 41 28 22 17 345 327 327 299 286 284 289 277 267 258 272 269 255 237 237 256 264 250 243 250 255 260 271 273 270 260 251 244 234 233 235 230 228 237 246 245 235 224 219
339 0 336 325 283 280 311 311 297 297 294 277 257 249 246 249 236 217 264 267 257 259 255 255 256 261 277 280 278 270 261 251 242 237 234 232 232 221 223 236 240 246 242 224
337 332 311 304 325 348 333 318 317 311 295 289 275 259 248 262 293 273 233 243 254 251 249 258 265 273 273 267 262 262 265 262 254 244 238 239 250 244 230 231 226 245 249 238
306 306 312 328 329 302 283 301 319 322 326 320 311 313 303 217 229 253 254 240 246 256 283 280 272 275 269 274 259 241 238 241 234 216 222 235 255 264 263 228 198 203 209 219
298 293 283 275 274 275 275 286 288 294 312 318 313 308 301 294 270 258 260 267 286 263 274 279 285 292 310 308 276 249 239 244 237 235 225 240 283 289 298 298 276 245 256 257
330 310 302 311 310 304 293 282 287 291 267 228 262 278 270 277 281 277 273 278 282 239 258 275 278 261 271 290 288 302 360 50 151 153 144 174 213 230 258 288 314 319 308 341